Weather in Savinskoye

Russia / Yaroslavl Oblast     57°56′27″N   39°22′11″E
В апреле 2022 года жителям России запретили посещать сайт meteo.paraplan.net по решению Генеральной прокуратуры. Аудитория сайта уменьшилась в 10 раз. Владельцы сайта не видят смысла в поддержке погодного сервера в таких условиях. Сайт будет закрыт в октябре.
temp.,
°C
wind,
m/s
gust,
m/s
humid.,
%
clouds,
%
prec.,
mm/h
press.,
hPa
HPBL,
m
3 october, mon
mon300:00+8ne2495100 0.0 1006201
03:00+8ne4995100 0.0 1005314
06:00+9ene51394100 1.1 1003528
09:00+9e61496100 5.4 1002470
12:00+12e61397100 2.2 1001551
15:00+16ese71384100 2.3 9991119
18:00+13se71485100 0.5 10001108
21:00+9sse6138099 0.8 10041035
4 october, tue
tue400:00+9se6148363 0.0 1006966
03:00+8se6138586 0.0 10081001
06:00+10se61382100 0.0 10081295
09:00+10se7148399 0.0 10091264
12:00+11sse61472100 0.0 10101625
15:00+12sse7146572 0.3 10101565
18:00+10sse51284100 0.8 10101022
21:00+9sse51290100 7.2 1011965
5 october, wed
wed500:00+8sse51091100 2.1 1010746
03:00+8sse3989100 2.3 1010719
06:00+8sse4889100 0.8 10101098
09:00+7sse3794100 2.4 1010693
12:00+8ssw358399 0.7 1011777
15:00+8wsw3577100 0.9 1011847
18:00+6wsw249279 0.1 1012118
21:00+5wsw249560 0.1 1013138
6 october, thu
thu600:00+6wsw2593100 0.1 1013238
03:00+4wsw259759 0.1 1014115
06:00+4wsw259696 0.0 1014145
09:00+6wsw348915 0.0 1014290
12:00+9wsw34712 0.0 1014788
15:00+10sw45669 0.0 1013859
18:00+7s498494 0.0 1012424
21:00+7ssw41295100 0.3 1010597
7 october, fri
fri700:00+10wsw5139699 2.1 1008833
03:00+9w5129372 2.3 1010635
06:00+9w51285100 0.0 1011769
09:00+9wsw5128274 0.0 1011860
12:00+10wsw71481100 0.1 10111474
15:00+11w715735 0.9 10111574
18:00+10w613760 0.4 1014982
21:00+8w513834 0.4 1016695